Stations météo

réclame
Mon MeteoGroup
Shoreham Airport, Grande-Bretagne (3876): Température de l'air & dewpoint: 14.07.2019 12:00:00 - 20.07.2019 12:00:00 (BST)Shoreham Airport, Grande-Bretagne (3876): Vitesse du vent & gusts: 14.07.2019 12:00:00 - 20.07.2019 12:00:00 (BST)Shoreham Airport, Grande-Bretagne (3876): Direction du vent: 14.07.2019 12:00:00 - 20.07.2019 12:00:00 (BST)Shoreham Airport, Grande-Bretagne (3876): reduced air pressure: 14.07.2019 12:00:00 - 20.07.2019 12:00:00 (BST)Shoreham Airport, Grande-Bretagne (3876): visibility: 14.07.2019 12:00:00 - 20.07.2019 12:00:00 (BST)Shoreham Airport, Grande-Bretagne (3876): Quantités de précipitations: 14.07.2019 12:00:00 - 20.07.2019 12:00:00 (BST)
Date & Time tt [°C] td [°C] ff [km/h] ff [knt] fx [km/h] fx [knt] dd ppp [hPa] vv [km] rr [mm]
20.07.2019 12:00:00 20,3 17,3 41 22 54 29 SW 1008,7 10 0,0
20.07.2019 11:00:00 19,7 17,9 29 16 - - SW 1008,3 10 0,0
20.07.2019 10:00:00 19,4 18,2 28 15 - - WSW 1007,7 10 0,0
20.07.2019 09:00:00 17,8 17,2 29 16 - - SW 1007,3 10 0,0
20.07.2019 08:00:00 17,9 17,3 34 18 48 26 SSW 1006,7 - 0,4
20.07.2019 07:00:00 17,7 17,2 22 12 - - S 1006,5 - 0,2
20.07.2019 06:00:00 17,3 16,7 18 10 - - S 1006,8 - 0,6
20.07.2019 05:00:00 17,6 17,1 28 15 - - SSW 1007,2 - 0,0
20.07.2019 04:00:00 16,6 16,1 15 8 - - SSW 1007,8 - 0,0
20.07.2019 03:00:00 16,2 15,9 11 6 - - SSE 1007,9 - 7,0
20.07.2019 02:00:00 17,0 16,5 16 9 - - WSW 1008,5 - 3,6
20.07.2019 01:00:00 17,4 17,0 22 12 - - SSW 1009,1 - 3,0
20.07.2019 00:00:00 17,6 17,3 24 13 - - SSW 1009,3 - 15,6
19.07.2019 23:00:00 17,8 17,5 18 10 - - SSW 1009,3 - 6,8
19.07.2019 22:00:00 17,6 17,3 16 9 - - SSW 1009,9 - 0,0
19.07.2019 21:00:00 17,7 17,3 21 11 - - SSW 1010,4 - 0,8
19.07.2019 20:00:00 17,9 17,4 26 14 - - SSW 1010,6 - 0,0
19.07.2019 19:00:00 17,7 17,2 24 13 - - S 1010,7 4,0 0,6
19.07.2019 18:00:00 18,1 16,9 26 14 - - SSW 1011,0 2,0 0,0
19.07.2019 17:00:00 18,8 17,3 31 17 46 25 SSW 1011,4 10 0,0
19.07.2019 16:00:00 18,2 17,1 31 17 - - SSW 1011,7 5 0,0
19.07.2019 15:00:00 17,1 16,5 31 17 50 27 SSW 1012,2 1,5 0,2
19.07.2019 14:00:00 17,0 15,8 31 17 46 25 S 1012,1 1,5 0,6
19.07.2019 13:00:00 17,0 15,5 26 14 - - S 1012,6 7 0,4
19.07.2019 12:00:00 17,7 14,9 24 13 - - S 1012,9 10 0,0
19.07.2019 11:00:00 17,4 15,3 22 12 - - S 1013,2 10 0,0
19.07.2019 10:00:00 16,9 15,0 24 13 - - SSW 1013,4 10 0,0
19.07.2019 09:00:00 17,1 15,6 24 13 - - SSW 1013,4 9 0,6
19.07.2019 08:00:00 17,0 16,1 13 7 - - SSW 1013,3 9 0,0
19.07.2019 07:00:00 14,1 13,7 2 1 - - WNW 1013,4 - 0,0
19.07.2019 06:00:00 10,7 10,3 5 3 - - NE 1013,2 - 0,0
19.07.2019 05:00:00 10,2 9,7 5 3 - - N 1013,4 - 0,0
19.07.2019 04:00:00 9,5 8,7 5 3 - - N 1013,0 - 0,0
19.07.2019 03:00:00 11,1 10,4 4 2 - - N 1013,4 - 0,0
19.07.2019 02:00:00 11,9 11,0 0 0 - - N 1013,4 - 0,0
19.07.2019 01:00:00 14,0 12,6 2 1 - - SW 1013,5 - 0,0
19.07.2019 00:00:00 13,2 11,7 9 5 - - W 1013,3 - 0,0
18.07.2019 23:00:00 15,0 12,8 9 5 - - W 1013,2 - 0,0
18.07.2019 22:00:00 16,3 12,9 11 6 - - WSW 1013,0 - 0,0
18.07.2019 21:00:00 18,2 13,6 24 13 - - WSW 1012,3 - 0,0
18.07.2019 20:00:00 19,1 14,3 22 12 - - WSW 1011,8 10 0,0
18.07.2019 19:00:00 19,6 15,0 24 13 - - SW 1011,5 10 0,0
18.07.2019 18:00:00 19,6 14,7 28 15 - - SW 1011,4 10 0,0
18.07.2019 17:00:00 19,6 14,5 28 15 - - SW 1011,4 10 0,0
18.07.2019 16:00:00 20,3 15,3 29 16 - - SW 1011,2 10 0,0
18.07.2019 15:00:00 20,2 15,4 28 15 - - SW 1011,2 10 0,0
18.07.2019 14:00:00 19,6 15,6 26 14 - - SW 1011,1 10 0,0
18.07.2019 13:00:00 20,0 15,5 24 13 - - WSW 1010,7 10 0,0
18.07.2019 12:00:00 18,6 16,6 21 11 - - W 1010,6 10 0,2
18.07.2019 11:00:00 18,6 17,9 16 9 - - WSW 1010,0 10 0,2
18.07.2019 10:00:00 17,3 16,7 26 14 - - SSW 1010,1 4,5 0,0
18.07.2019 09:00:00 16,8 16,4 28 15 - - SSW 1010,2 1,2 0,0
18.07.2019 08:00:00 16,7 16,3 26 14 - - SSW 1010,5 3,8 0,2
18.07.2019 07:00:00 17,1 15,8 24 13 - - SSW 1010,4 - 0,0
18.07.2019 06:00:00 17,3 15,5 24 13 - - SW 1010,5 - 0,0
18.07.2019 05:00:00 15,8 15,3 5 3 - - W 1010,9 - 0,0
18.07.2019 04:00:00 15,1 14,3 2 1 - - SW 1010,8 - 0,0
18.07.2019 03:00:00 15,2 14,3 8 4 - - W 1011,2 - 0,0
18.07.2019 02:00:00 15,3 14,0 4 2 - - W 1011,7 - 0,0
18.07.2019 01:00:00 16,2 14,8 9 5 - - WSW 1012,1 - 0,0
18.07.2019 00:00:00 15,6 13,7 5 3 - - WNW 1012,3 - 0,0
17.07.2019 23:00:00 16,8 14,4 11 6 - - WSW 1012,4 - 0,0
17.07.2019 22:00:00 17,2 14,5 22 12 - - WSW 1012,8 - 0,0
17.07.2019 21:00:00 17,5 14,7 21 11 - - SW 1012,5 - 0,0
17.07.2019 20:00:00 18,0 14,5 18 10 - - SW 1012,8 10 0,0
17.07.2019 19:00:00 18,3 12,8 24 13 - - SW 1013,2 10 0,0
17.07.2019 18:00:00 19,5 13,0 22 12 - - SW 1013,4 10 0,0
17.07.2019 17:00:00 20,5 12,4 24 13 - - SW 1013,6 10 0,0
17.07.2019 16:00:00 20,8 13,6 24 13 - - SW 1013,9 10 0,0
17.07.2019 15:00:00 20,4 14,7 21 11 - - SSW 1014,2 10 0,0
17.07.2019 14:00:00 20,4 15,1 18 10 - - SSW 1014,7 10 0,0
17.07.2019 13:00:00 20,1 14,8 16 9 - - SSW 1015,1 10 0,0
17.07.2019 12:00:00 20,0 14,5 13 7 - - S 1015,5 10 0,0
17.07.2019 11:00:00 19,0 13,9 13 7 - - S 1015,6 10 0,0
17.07.2019 10:00:00 19,3 14,4 11 6 - - S 1015,9 10 0,0
17.07.2019 09:00:00 18,5 13,5 9 5 - - S 1015,9 10 0,0
17.07.2019 08:00:00 17,5 14,8 2 1 - - WNW 1015,8 10 0,0
17.07.2019 07:00:00 13,0 12,3 4 2 - - N 1015,7 - 0,0
17.07.2019 06:00:00 10,1 9,8 8 4 - - N 1016,0 - 0,0
17.07.2019 05:00:00 9,5 8,9 8 4 - - N 1016,1 - 0,0
17.07.2019 04:00:00 10,2 9,4 11 6 - - N 1016,4 - 0,0
17.07.2019 03:00:00 11,4 10,4 5 3 - - E 1016,9 - 0,0
17.07.2019 02:00:00 12,9 11,5 11 6 - - N 1017,2 - 0,0
17.07.2019 01:00:00 12,4 11,6 11 6 - - N 1017,5 - 0,0
17.07.2019 00:00:00 12,7 11,8 5 3 - - N 1017,8 - 0,0
16.07.2019 23:00:00 12,9 11,6 5 3 - - NW 1018,0 - 0,0
16.07.2019 22:00:00 13,9 11,7 5 3 - - N 1018,1 - 0,0
16.07.2019 21:00:00 15,7 11,2 5 3 - - SSW 1017,9 - 0,0
16.07.2019 20:00:00 17,6 11,7 5 3 - - S 1018,3 10 0,0
16.07.2019 19:00:00 17,9 12,1 8 4 - - SSW 1018,4 10 0,0
16.07.2019 18:00:00 18,2 12,4 13 7 - - SSW 1018,7 10 0,0
16.07.2019 17:00:00 18,4 12,4 15 8 - - S 1019,1 10 0,0
16.07.2019 16:00:00 19,1 12,9 16 9 - - S 1019,5 10 0,0
16.07.2019 15:00:00 18,8 12,5 16 9 - - S 1019,8 10 0,0
16.07.2019 14:00:00 19,0 12,3 16 9 - - S 1020,0 10 0,0
16.07.2019 13:00:00 19,4 13,1 15 8 - - S 1020,1 10 0,0
16.07.2019 12:00:00 18,8 13,2 16 9 - - S 1020,1 10 0,0
16.07.2019 11:00:00 18,6 13,1 15 8 - - SSE 1020,3 10 0,0
16.07.2019 10:00:00 18,2 13,0 13 7 - - S 1020,4 10 -
16.07.2019 09:00:00 17,9 13,7 4 2 - - NNE 1020,8 10 -
16.07.2019 08:00:00 14,9 12,6 5 3 - - N 1021,0 10 0,0
16.07.2019 07:00:00 12,7 11,9 11 6 - - N 1020,7 - 0,0
16.07.2019 06:00:00 10,9 10,5 11 6 - - N 1020,5 - 0,0
16.07.2019 05:00:00 10,8 10,1 11 6 - - N 1020,5 - 0,0
16.07.2019 04:00:00 10,4 9,4 8 4 - - N 1020,7 - 0,0
16.07.2019 03:00:00 12,0 10,4 4 2 - - N 1020,9 - 0,0
16.07.2019 02:00:00 14,4 12,0 5 3 - - N 1021,3 - 0,0
16.07.2019 01:00:00 14,9 12,2 8 4 - - N 1021,7 - 0,0
16.07.2019 00:00:00 16,2 12,4 8 4 - - ESE 1021,9 - 0,0
15.07.2019 23:00:00 16,2 12,8 8 4 - - SE 1021,8 - 0,0
15.07.2019 22:00:00 15,2 12,0 5 3 - - SSE 1021,9 - 0,0
15.07.2019 21:00:00 15,6 10,6 9 5 - - SSE 1021,6 - 0,0
15.07.2019 20:00:00 17,1 10,3 9 5 - - SSE 1021,4 10 0,0
15.07.2019 19:00:00 17,9 9,5 8 4 - - SSE 1021,3 10 0,0
15.07.2019 18:00:00 18,2 10,0 9 5 - - SSE 1021,3 10 0,0
15.07.2019 17:00:00 18,7 10,3 13 7 - - S 1021,6 10 0,0
15.07.2019 16:00:00 19,3 10,8 15 8 - - S 1021,9 10 0,0
15.07.2019 15:00:00 19,1 9,8 11 6 - - ENE 1022,2 10 0,0
15.07.2019 14:00:00 18,8 10,5 11 6 - - NE 1022,5 10 0,0
15.07.2019 13:00:00 18,7 9,5 13 7 - - NE 1022,8 10 0,0
15.07.2019 12:00:00 16,9 9,6 11 6 - - NNE 1022,9 10 0,0
15.07.2019 11:00:00 16,0 9,0 13 7 - - NE 1023,1 10 0,0
15.07.2019 10:00:00 15,1 9,0 15 8 - - NE 1023,3 10 0,0
15.07.2019 09:00:00 14,9 9,0 15 8 - - NE 1023,2 10 0,0
15.07.2019 08:00:00 14,2 9,7 11 6 - - NNE 1022,9 10 0,0
15.07.2019 07:00:00 12,6 10,9 9 5 - - NNE 1022,7 - 0,0
15.07.2019 06:00:00 11,0 10,0 13 7 - - NNW 1022,8 - 0,0
15.07.2019 05:00:00 10,0 9,2 8 4 - - N 1022,8 - 0,0
15.07.2019 04:00:00 10,2 9,4 8 4 - - N 1022,7 - 0,0
15.07.2019 03:00:00 11,6 10,7 8 4 - - N 1022,8 - 0,0
15.07.2019 02:00:00 13,3 12,1 5 3 - - N 1023,1 - 0,0
15.07.2019 01:00:00 14,3 12,9 8 4 - - N 1023,2 - 0,0
15.07.2019 00:00:00 14,6 13,4 11 6 - - N 1023,2 - 0,0
14.07.2019 23:00:00 13,1 11,4 2 1 - - WNW 1023,1 - 0,0
14.07.2019 22:00:00 14,9 11,8 4 2 - - S 1023,0 - 0,0
14.07.2019 21:00:00 16,3 12,6 8 4 - - SSE 1022,6 - 0,0
14.07.2019 20:00:00 17,5 12,9 8 4 - - S 1022,4 - 0,0
14.07.2019 19:00:00 17,7 13,3 13 7 - - SSE 1022,6 10 0,0
14.07.2019 18:00:00 18,4 13,9 11 6 - - S 1022,4 10 0,0
14.07.2019 17:00:00 18,3 13,9 11 6 - - S 1022,6 10 0,0
14.07.2019 16:00:00 19,0 14,3 15 8 - - SSW 1022,6 10 0,0
14.07.2019 15:00:00 18,5 14,1 5 3 - - SSW 1022,8 10 0,0
14.07.2019 14:00:00 18,8 14,5 13 7 - - S 1023,0 10 0,0
14.07.2019 13:00:00 19,5 12,4 13 7 - - E 1023,0 10 0,0
14.07.2019 12:00:00 20,4 12,4 13 7 - - NE 1023,0 10 0,0

tt = Température de l'air
td = dewpoint
ff = Vitesse du vent
fx = gusts
dd = Direction du vent
ppp = reduced air pressure
vv = visibility
rr = Quantités de précipitations

stations d'obs. à proximité